{"data":{"norad_id":60274,"intl_designator":"2024-131V","name":"STARLINK-32155","alt_names":[],"object_type":"PAYLOAD","status":"ACTIVE","operator":null,"country":"US","launch_date":"2024-07-27","launch_site_code":"AFETR","launch_vehicle":null,"mission":null,"orbit_class":"UNKNOWN","rcs_meters":null,"size_class":null,"mass_kg":null,"dimensions":null,"purposes":["comms"],"wikipedia_slug":null,"has_3d_model":false,"image_url":null,"decayed_at":null,"tle_current":{"epoch":"2026-05-25T03:39:21.273984Z","epoch_age_seconds":65374,"freshness":"FRESH","line1":"1 60274U 24131V   26145.15232956  .00000646  00000+0  32568-4 0  9994","line2":"2 60274  53.1617  57.3913 0001241  87.0829 273.0315 15.31701229103325","mean_motion":15.31701229,"eccentricity":0.0001241,"inclination_deg":53.1617,"raan_deg":57.3913,"arg_perigee_deg":87.0829,"mean_anomaly_deg":273.0315,"bstar":3.2568e-5,"rev_number":10332,"period_min":94.013112527182,"perigee_km":469.88638646259,"apogee_km":471.58627682351,"semimajor_km":6848.873331643,"source":"CELESTRAK","updated_at":"2026-05-25T13:38:19.202471Z"}}}